N7MD EGPD-BIRK

Flight info

Callsign N7MD
Flight time N/A
Altitude 43000
Route ADN Y904 WIK DCT BAMRA DCT KESEG DCT MODGO DCT DEVBI DCT RATSU/M086F430 DCT ALDAN DCT ASRUN DCT KFV
Aircraft C750/M-SBDE3FGHRWXY/S

Departure

Time 2026-05-09 02:57
Airport Aberdeen International Airport (EGPD)

Arrival

Time N/A
Airport Reykjavík Domestic Airport (BIRK)
Time Latitude Longitude Altitude Speed Heading
2026-05-09 02:34 57.19861 -2.19209 207 ft 0 kts 147°
2026-05-09 02:36 57.19863 -2.19212 207 ft 2 kts 140°
2026-05-09 02:37 57.19867 -2.19235 211 ft 2 kts 354°
2026-05-09 02:37 57.19856 -2.19234 215 ft 0 kts
2026-05-09 02:47 57.19858 -2.19234 207 ft 2 kts
2026-05-09 02:47 57.19871 -2.19247 212 ft 4 kts 314°
2026-05-09 02:47 57.19882 -2.19307 215 ft 6 kts 285°
2026-05-09 02:48 57.19892 -2.19381 205 ft 6 kts 284°
2026-05-09 02:48 57.19911 -2.19442 206 ft 4 kts 313°
2026-05-09 02:48 57.19921 -2.19461 207 ft 3 kts 313°
2026-05-09 02:48 57.19938 -2.19492 214 ft 7 kts 316°
2026-05-09 02:49 57.19955 -2.19551 209 ft 4 kts 266°
2026-05-09 02:49 57.19931 -2.19584 213 ft 6 kts 176°
2026-05-09 02:49 57.19883 -2.19549 213 ft 7 kts 158°
2026-05-09 02:49 57.19830 -2.19510 213 ft 10 kts 158°
2026-05-09 02:50 57.19760 -2.19459 214 ft 11 kts 159°
2026-05-09 02:50 57.19687 -2.19405 216 ft 11 kts 158°
2026-05-09 02:50 57.19610 -2.19347 216 ft 13 kts 158°
2026-05-09 02:50 57.19527 -2.19279 217 ft 11 kts 148°
2026-05-09 02:51 57.19470 -2.19202 218 ft 9 kts 146°
2026-05-09 02:51 57.19449 -2.19221 218 ft 3 kts 289°
2026-05-09 02:51 57.19466 -2.19244 218 ft 0 kts 337°
2026-05-09 02:56 57.19515 -2.19281 217 ft 37 kts 338°
2026-05-09 02:56 57.20096 -2.19709 211 ft 134 kts 338°
2026-05-09 02:56 57.20986 -2.20333 774 ft 133 kts 340°
2026-05-09 02:57 57.21857 -2.20875 1558 ft 133 kts 341°
2026-05-09 02:57 57.22785 -2.21440 2140 ft 147 kts 342°
2026-05-09 02:57 57.23821 -2.22103 2688 ft 165 kts 340°
2026-05-09 02:57 57.24922 -2.22866 3502 ft 176 kts 340°
2026-05-09 02:58 57.26173 -2.23637 4009 ft 203 kts 341°
2026-05-09 02:58 57.27582 -2.24516 4466 ft 231 kts 340°
2026-05-09 02:58 57.29188 -2.25543 4967 ft 255 kts 339°
2026-05-09 02:58 57.30874 -2.26618 6005 ft 257 kts 338°
2026-05-09 02:59 57.32562 -2.27869 6869 ft 266 kts 336°
2026-05-09 02:59 57.34323 -2.29057 7877 ft 270 kts 338°
2026-05-09 02:59 57.36104 -2.30254 8944 ft 275 kts 336°
2026-05-09 02:59 57.37910 -2.31536 9936 ft 281 kts 335°
2026-05-09 03:00 57.39775 -2.32872 10546 ft 298 kts 335°
2026-05-09 03:00 57.41805 -2.34309 10753 ft 326 kts 335°
2026-05-09 03:00 57.43983 -2.35839 10997 ft 348 kts 335°
2026-05-09 03:00 57.46248 -2.37423 11889 ft 348 kts 335°
2026-05-09 03:01 57.48529 -2.39036 12628 ft 353 kts 335°
2026-05-09 03:01 57.50844 -2.40687 13404 ft 357 kts 334°
2026-05-09 03:01 57.53188 -2.42350 14149 ft 362 kts 334°
2026-05-09 03:01 57.55560 -2.44031 14819 ft 366 kts 334°
2026-05-09 03:02 57.57925 -2.45714 15479 ft 370 kts 334°
2026-05-09 03:02 57.60348 -2.47443 16156 ft 375 kts 333°
2026-05-09 03:02 57.62799 -2.49192 16862 ft 379 kts 333°
2026-05-09 03:02 57.65277 -2.50964 17569 ft 384 kts 333°
2026-05-09 03:03 57.67790 -2.52764 18266 ft 388 kts 332°
2026-05-09 03:03 57.70327 -2.54582 18907 ft 393 kts 332°
2026-05-09 03:03 57.72894 -2.56424 19547 ft 397 kts 332°
2026-05-09 03:03 57.75485 -2.58288 20195 ft 401 kts 331°
2026-05-09 03:04 57.78105 -2.60176 20847 ft 405 kts 331°
2026-05-09 03:04 57.80753 -2.62086 21492 ft 409 kts 331°
2026-05-09 03:04 57.83421 -2.64014 22124 ft 414 kts 330°
2026-05-09 03:04 57.86122 -2.65969 22749 ft 418 kts 330°
2026-05-09 03:05 57.88849 -2.67946 23376 ft 422 kts 330°
2026-05-09 03:05 57.91606 -2.69948 23968 ft 427 kts 330°
2026-05-09 03:05 57.94390 -2.71972 24499 ft 430 kts 329°
2026-05-09 03:05 57.97198 -2.74015 25054 ft 433 kts 329°
2026-05-09 03:06 57.99980 -2.76046 25606 ft 436 kts 329°
2026-05-09 03:06 58.02823 -2.78125 26158 ft 440 kts 329°
2026-05-09 03:06 58.05681 -2.80218 26725 ft 443 kts 329°
2026-05-09 03:06 58.08566 -2.82334 27282 ft 446 kts 328°
2026-05-09 03:07 58.11471 -2.84468 27854 ft 449 kts 328°
2026-05-09 03:07 58.14393 -2.86619 28421 ft 453 kts 328°
2026-05-09 03:07 58.17343 -2.88795 28994 ft 456 kts 328°
2026-05-09 03:07 58.20314 -2.90989 29542 ft 460 kts 328°
2026-05-09 03:08 58.23307 -2.93204 30091 ft 463 kts 328°
2026-05-09 03:08 58.26323 -2.95440 30577 ft 467 kts 328°
2026-05-09 03:08 58.29364 -2.97699 31009 ft 470 kts 328°
2026-05-09 03:08 58.32414 -2.99967 31541 ft 471 kts 328°
2026-05-09 03:09 58.35466 -3.02233 32211 ft 469 kts 329°
2026-05-09 03:09 58.38470 -3.04479 32809 ft 468 kts 329°
2026-05-09 03:09 58.41507 -3.06758 33423 ft 468 kts 330°
2026-05-09 03:09 58.44539 -3.09030 34049 ft 468 kts 330°
2026-05-09 03:10 58.47533 -3.11410 34567 ft 465 kts 329°
2026-05-09 03:10 58.50490 -3.13942 35076 ft 465 kts 329°
2026-05-09 03:10 58.53443 -3.16478 35593 ft 465 kts 329°
2026-05-09 03:10 58.56370 -3.18964 36112 ft 465 kts 330°
2026-05-09 03:11 58.59330 -3.21476 36630 ft 465 kts 330°
2026-05-09 03:11 58.62280 -3.24005 37168 ft 465 kts 330°
2026-05-09 03:11 58.65232 -3.26546 37711 ft 464 kts 331°
2026-05-09 03:11 58.68186 -3.29081 38246 ft 465 kts 331°
2026-05-09 03:12 58.71143 -3.31620 38793 ft 465 kts 332°
2026-05-09 03:12 58.74103 -3.34173 39259 ft 464 kts 332°
2026-05-09 03:12 58.77017 -3.36693 39698 ft 464 kts 332°
2026-05-09 03:12 58.79999 -3.39274 40144 ft 463 kts 332°
2026-05-09 03:13 58.85839 -3.44340 41038 ft 463 kts 332°
2026-05-09 03:13 58.88218 -3.46410 41409 ft 462 kts 332°
2026-05-09 03:13 58.91113 -3.48933 41846 ft 462 kts 332°
2026-05-09 03:14 58.94046 -3.51495 42282 ft 462 kts 332°
2026-05-09 03:14 58.96975 -3.54057 42710 ft 462 kts 332°
2026-05-09 03:14 58.99899 -3.56619 43132 ft 460 kts 332°
2026-05-09 03:14 59.02828 -3.59193 43238 ft 467 kts 333°
2026-05-09 03:15 59.08859 -3.64508 43258 ft 485 kts 333°
2026-05-09 03:15 59.15097 -3.70019 43256 ft 501 kts 333°
2026-05-09 03:16 59.21521 -3.75723 43260 ft 511 kts 333°
2026-05-09 03:16 59.27951 -3.81452 43256 ft 511 kts 333°
2026-05-09 03:17 59.34428 -3.87253 43253 ft 511 kts 333°
2026-05-09 03:17 59.40676 -3.93761 43234 ft 506 kts 322°
2026-05-09 03:18 59.45695 -4.03303 43232 ft 501 kts 305°
2026-05-09 03:18 59.49221 -4.15056 43262 ft 499 kts 296°
2026-05-09 03:19 59.52597 -4.27008 43254 ft 499 kts 300°
2026-05-09 03:19 59.56131 -4.38816 43256 ft 499 kts 297°
2026-05-09 03:20 59.59511 -4.50792 43253 ft 499 kts 298°
2026-05-09 03:20 59.62984 -4.62659 43254 ft 499 kts 298°
2026-05-09 03:21 59.66371 -4.74641 43255 ft 499 kts 298°
2026-05-09 03:21 59.69777 -4.86516 43255 ft 499 kts 298°
2026-05-09 03:22 59.73162 -4.98529 43258 ft 499 kts 297°
2026-05-09 03:22 59.76558 -5.10552 43257 ft 499 kts 297°
2026-05-09 03:23 59.79927 -5.22597 43255 ft 499 kts 297°
2026-05-09 03:23 59.83296 -5.34678 43261 ft 499 kts 297°
2026-05-09 03:24 59.86629 -5.46705 43257 ft 499 kts 297°
2026-05-09 03:24 59.89968 -5.58813 43253 ft 499 kts 297°
2026-05-09 03:25 59.93297 -5.70952 43255 ft 499 kts 297°
2026-05-09 03:25 59.96617 -5.83121 43256 ft 498 kts 297°
2026-05-09 03:26 59.99924 -5.95309 43262 ft 498 kts 297°
2026-05-09 03:26 60.03198 -6.07440 43260 ft 498 kts 297°
2026-05-09 03:27 60.06443 -6.19532 43262 ft 499 kts 297°
2026-05-09 03:27 60.09715 -6.31789 43265 ft 498 kts 297°
2026-05-09 03:28 60.12968 -6.44045 43260 ft 498 kts 297°
2026-05-09 03:28 60.16218 -6.56351 43262 ft 498 kts 297°
2026-05-09 03:29 60.19448 -6.68655 43263 ft 498 kts 297°
2026-05-09 03:29 60.22670 -6.80991 43265 ft 498 kts 296°
2026-05-09 03:30 60.25877 -6.93341 43267 ft 498 kts 296°
2026-05-09 03:30 60.29056 -7.05646 43266 ft 497 kts 296°
2026-05-09 03:31 60.32239 -7.18041 43265 ft 497 kts 296°
2026-05-09 03:31 60.35412 -7.30462 43268 ft 497 kts 296°
2026-05-09 03:32 60.38566 -7.42883 43271 ft 497 kts 296°
2026-05-09 03:32 60.41698 -7.55280 43269 ft 496 kts 296°
2026-05-09 03:33 60.44828 -7.67742 43270 ft 497 kts 296°
2026-05-09 03:33 60.47956 -7.80268 43271 ft 497 kts 296°
2026-05-09 03:34 60.51070 -7.92809 43272 ft 498 kts 296°
2026-05-09 03:34 60.54151 -8.05290 43274 ft 497 kts 296°
2026-05-09 03:35 60.57241 -8.17875 43273 ft 498 kts 296°
2026-05-09 03:35 60.60321 -8.30493 43267 ft 498 kts 296°
2026-05-09 03:36 60.63387 -8.43131 43263 ft 498 kts 296°
2026-05-09 03:36 60.66441 -8.55786 43263 ft 498 kts 296°
2026-05-09 03:37 60.68975 -8.66346 43260 ft 498 kts 296°
2026-05-09 03:37 60.72011 -8.79064 43268 ft 498 kts 296°
2026-05-09 03:38 60.75054 -8.91888 43268 ft 499 kts 296°
2026-05-09 03:38 60.78049 -9.04583 43266 ft 499 kts 296°
2026-05-09 03:39 60.81051 -9.17384 43270 ft 499 kts 296°
2026-05-09 03:39 60.84040 -9.30206 43267 ft 499 kts 296°
2026-05-09 03:40 60.87020 -9.43065 43274 ft 499 kts 296°
2026-05-09 03:40 60.89988 -9.55950 43270 ft 499 kts 295°
2026-05-09 03:41 60.92943 -9.68856 43272 ft 499 kts 295°
2026-05-09 03:41 60.95886 -9.81785 43272 ft 499 kts 295°
2026-05-09 03:42 60.98821 -9.94761 43273 ft 499 kts 295°
2026-05-09 03:42 61.02014 -10.07443 43275 ft 499 kts 300°
2026-05-09 03:43 61.05460 -10.19905 43286 ft 499 kts 300°
2026-05-09 03:43 61.08810 -10.32366 43280 ft 500 kts 300°
2026-05-09 03:44 61.12212 -10.44897 43281 ft 500 kts 300°
2026-05-09 03:44 61.15579 -10.57489 43283 ft 499 kts 300°
2026-05-09 03:45 61.18945 -10.70074 43280 ft 498 kts 300°